Year,Month,Day,Hour,Minute,Value (Times are PST for temperature in C)
2009,06,02,00,10,10.50
2009,06,02,00,11,10.50
2009,06,02,00,12,10.50
2009,06,02,00,13,10.50
2009,06,02,00,14,10.50
2009,06,02,00,15,10.50
2009,06,02,00,16,10.50
2009,06,02,00,17,10.50
2009,06,02,00,18,10.50
2009,06,02,00,19,10.50
2009,06,02,00,20,10.50
2009,06,02,00,21,10.50
2009,06,02,00,22,10.50
2009,06,02,00,23,10.50
2009,06,02,00,24,10.50
2009,06,02,00,25,10.50
2009,06,02,00,26,10.50
2009,06,02,00,27,10.50
2009,06,02,00,28,10.50
2009,06,02,00,29,10.50
2009,06,02,00,30,10.50
2009,06,02,00,31,10.50
2009,06,02,00,32,10.50
2009,06,02,00,33,10.50
2009,06,02,00,34,10.50
2009,06,02,00,35,10.50
2009,06,02,00,36,10.50
2009,06,02,00,37,10.50
2009,06,02,00,38,10.50
2009,06,02,00,39,10.50
2009,06,02,00,40,10.50
2009,06,02,00,41,10.50
2009,06,02,00,42,10.50
2009,06,02,00,43,10.50
2009,06,02,00,44,10.50
2009,06,02,00,45,10.50
2009,06,02,00,46,10.50
2009,06,02,00,47,10.50
2009,06,02,00,48,10.50
2009,06,02,00,49,10.50
2009,06,02,00,50,10.50
2009,06,02,00,51,10.50
2009,06,02,00,52,10.50
2009,06,02,00,53,10.50
2009,06,02,00,54,10.50
2009,06,02,00,55,10.40
2009,06,02,00,56,10.40
2009,06,02,00,57,10.40
2009,06,02,00,58,10.40
2009,06,02,00,59,10.40
2009,06,02,01,00,10.40
2009,06,02,01,01,10.40
2009,06,02,01,02,10.40
2009,06,02,01,03,10.40
2009,06,02,01,04,10.40
2009,06,02,01,05,10.40
2009,06,02,01,06,10.40
2009,06,02,01,07,10.40
2009,06,02,01,08,10.40
2009,06,02,01,09,10.40
2009,06,02,01,10,10.30
2009,06,02,01,11,10.30
2009,06,02,01,12,10.30
2009,06,02,01,13,10.30
2009,06,02,01,14,10.30
2009,06,02,01,15,10.30
2009,06,02,01,16,10.30
2009,06,02,01,17,10.30
2009,06,02,01,18,10.30
2009,06,02,01,19,10.30
2009,06,02,01,20,10.30
2009,06,02,01,21,10.30
2009,06,02,01,22,10.30
2009,06,02,01,23,10.30
2009,06,02,01,24,10.30
2009,06,02,01,25,10.30
2009,06,02,01,26,10.30
2009,06,02,01,27,10.30
2009,06,02,01,28,10.30
2009,06,02,01,29,10.30
2009,06,02,01,30,10.30
2009,06,02,01,31,10.30
2009,06,02,01,32,10.30
2009,06,02,01,33,10.30
2009,06,02,01,34,10.30
2009,06,02,01,35,10.30
2009,06,02,01,36,10.30
2009,06,02,01,37,10.30
2009,06,02,01,38,10.30
2009,06,02,01,39,10.30
2009,06,02,01,40,10.30
2009,06,02,01,41,10.30
2009,06,02,01,42,10.30
2009,06,02,01,43,10.30
2009,06,02,01,44,10.30
2009,06,02,01,45,10.30
2009,06,02,01,46,10.30
2009,06,02,01,47,10.30
2009,06,02,01,48,10.30
2009,06,02,01,49,10.30
2009,06,02,01,50,10.30
2009,06,02,01,51,10.30
2009,06,02,01,52,10.30
2009,06,02,01,53,10.30
2009,06,02,01,54,10.30
2009,06,02,01,55,10.30
2009,06,02,01,56,10.10
2009,06,02,01,57,10.10
2009,06,02,01,58,10.10
2009,06,02,01,59,10.10
2009,06,02,02,00,10.10
2009,06,02,02,01,10.10
2009,06,02,02,02,10.10
2009,06,02,02,03,10.10
2009,06,02,02,04,10.10
2009,06,02,02,05,10.10
2009,06,02,02,06,10.10
2009,06,02,02,07,10.10
2009,06,02,02,08,10.10
2009,06,02,02,09,10.10
2009,06,02,02,10,10.10
2009,06,02,02,11,10.10
2009,06,02,02,12,10.10
2009,06,02,02,13,10.10
2009,06,02,02,14,10.10
2009,06,02,02,15,10.10
2009,06,02,02,16,10.10
2009,06,02,02,17,10.10
2009,06,02,02,18,10.10
2009,06,02,02,19,10.10
2009,06,02,02,20,10.10
2009,06,02,02,21,10.10
2009,06,02,02,22,10.10
2009,06,02,02,23,10.10
2009,06,02,02,24,10.10
2009,06,02,02,25,10.10
2009,06,02,02,26,10.10
2009,06,02,02,27,10.10
2009,06,02,02,28,10.10
2009,06,02,02,29,10.10
2009,06,02,02,30,10.10
2009,06,02,02,31,10.10
2009,06,02,02,32,10.10
2009,06,02,02,33,10.10
2009,06,02,02,34,10.10
2009,06,02,02,35,10.10
2009,06,02,02,36,10.10
2009,06,02,02,37,10.10
2009,06,02,02,38,10.10
2009,06,02,02,39,10.10
2009,06,02,02,40,10.00
2009,06,02,02,41,10.00
2009,06,02,02,42,10.00
2009,06,02,02,43,10.00
2009,06,02,02,44,10.00
2009,06,02,02,45,10.00
2009,06,02,02,46,10.00
2009,06,02,02,47,10.00
2009,06,02,02,48,10.00
2009,06,02,02,49,10.00
2009,06,02,02,50,10.00
2009,06,02,02,51,10.00
2009,06,02,02,52,10.00
2009,06,02,02,53,10.00
2009,06,02,02,54,10.00
2009,06,02,02,55,10.20
2009,06,02,02,56,10.20
2009,06,02,02,57,10.20
2009,06,02,02,58,10.20
2009,06,02,02,59,10.20
2009,06,02,03,00,10.20
2009,06,02,03,01,10.20
2009,06,02,03,02,10.20
2009,06,02,03,03,10.20
2009,06,02,03,04,10.20
2009,06,02,03,05,10.20
2009,06,02,03,06,10.20
2009,06,02,03,07,10.20
2009,06,02,03,08,10.20
2009,06,02,03,09,10.20
2009,06,02,03,10,10.10
2009,06,02,03,11,10.10
2009,06,02,03,12,10.10
2009,06,02,03,13,10.10
2009,06,02,03,14,10.10
2009,06,02,03,15,10.10
2009,06,02,03,16,10.10
2009,06,02,03,17,10.10
2009,06,02,03,18,10.10
2009,06,02,03,19,10.10
2009,06,02,03,20,10.10
2009,06,02,03,21,10.10
2009,06,02,03,22,10.10
2009,06,02,03,23,10.10
2009,06,02,03,24,10.10
2009,06,02,03,25,10.20
2009,06,02,03,26,10.20
2009,06,02,03,27,10.20
2009,06,02,03,28,10.20
2009,06,02,03,29,10.20
2009,06,02,03,30,10.20
2009,06,02,03,31,10.20
2009,06,02,03,32,10.20
2009,06,02,03,33,10.20
2009,06,02,03,34,10.20
2009,06,02,03,35,10.20
2009,06,02,03,36,10.20
2009,06,02,03,37,10.20
2009,06,02,03,38,10.20
2009,06,02,03,39,10.20
2009,06,02,03,40,10.30
2009,06,02,03,41,10.30
2009,06,02,03,42,10.30
2009,06,02,03,43,10.30
2009,06,02,03,44,10.30
2009,06,02,03,45,10.30
2009,06,02,03,46,10.30
2009,06,02,03,47,10.30
2009,06,02,03,48,10.30
2009,06,02,03,49,10.30
2009,06,02,03,50,10.30
2009,06,02,03,51,10.30
2009,06,02,03,52,10.30
2009,06,02,03,53,10.30
2009,06,02,03,54,10.30
2009,06,02,03,55,10.10
2009,06,02,03,56,10.10
2009,06,02,03,57,10.10
2009,06,02,03,58,10.10
2009,06,02,03,59,10.10
2009,06,02,04,00,10.10
2009,06,02,04,01,10.10
2009,06,02,04,02,10.10
2009,06,02,04,03,10.10
2009,06,02,04,04,10.10
2009,06,02,04,05,10.10
2009,06,02,04,06,10.10
2009,06,02,04,07,10.10
2009,06,02,04,08,10.10
2009,06,02,04,09,10.10
2009,06,02,04,10,10.10
2009,06,02,04,11,10.10
2009,06,02,04,12,10.10
2009,06,02,04,13,10.10
2009,06,02,04,14,10.10
2009,06,02,04,15,10.10
2009,06,02,04,16,10.10
2009,06,02,04,17,10.10
2009,06,02,04,18,10.10
2009,06,02,04,19,10.10
2009,06,02,04,20,10.10
2009,06,02,04,21,10.10
2009,06,02,04,22,10.10
2009,06,02,04,23,10.10
2009,06,02,04,24,10.10
2009,06,02,04,25,10.20
2009,06,02,04,26,10.20
2009,06,02,04,27,10.20
2009,06,02,04,28,10.20
2009,06,02,04,29,10.20
2009,06,02,04,30,10.20
2009,06,02,04,31,10.20
2009,06,02,04,32,10.20
2009,06,02,04,33,10.20
2009,06,02,04,34,10.20
2009,06,02,04,35,10.20
2009,06,02,04,36,10.20
2009,06,02,04,37,10.20
2009,06,02,04,38,10.20
2009,06,02,04,39,10.20
2009,06,02,04,40,10.30
2009,06,02,04,41,10.30
2009,06,02,04,42,10.30
2009,06,02,04,43,10.30
2009,06,02,04,44,10.30
2009,06,02,04,45,10.30
2009,06,02,04,46,10.30
2009,06,02,04,47,10.30
2009,06,02,04,48,10.30
2009,06,02,04,49,10.30
2009,06,02,04,50,10.30
2009,06,02,04,51,10.30
2009,06,02,04,52,10.30
2009,06,02,04,53,10.30
2009,06,02,04,54,10.30
2009,06,02,04,55,10.30
2009,06,02,04,56,10.30
2009,06,02,04,57,10.30
2009,06,02,04,58,10.30
2009,06,02,04,59,10.30
2009,06,02,05,00,10.30
2009,06,02,05,01,10.30
2009,06,02,05,02,10.30
2009,06,02,05,04,10.30
2009,06,02,05,05,10.30
2009,06,02,05,06,10.30
2009,06,02,05,07,10.30
2009,06,02,05,08,10.30
2009,06,02,05,09,10.30
2009,06,02,05,10,10.40
2009,06,02,05,11,10.40
2009,06,02,05,13,10.40
2009,06,02,05,14,10.40
2009,06,02,05,15,10.40
2009,06,02,05,16,10.40
2009,06,02,05,17,10.40
2009,06,02,05,18,10.40
2009,06,02,05,19,10.40
2009,06,02,05,20,10.40
2009,06,02,05,21,10.40
2009,06,02,05,22,10.40
2009,06,02,05,23,10.40
2009,06,02,05,24,10.40
2009,06,02,05,25,10.40
2009,06,02,05,26,10.40
2009,06,02,05,27,10.40
2009,06,02,05,29,10.40
2009,06,02,05,30,10.40
2009,06,02,05,31,10.40
2009,06,02,05,32,10.40
2009,06,02,05,33,10.40
2009,06,02,05,34,10.40
2009,06,02,05,35,10.40
2009,06,02,05,36,10.40
2009,06,02,05,37,10.40
2009,06,02,05,38,10.40
2009,06,02,05,39,10.40
2009,06,02,05,40,10.80
2009,06,02,05,41,10.80
2009,06,02,05,42,10.80
2009,06,02,05,43,10.80
2009,06,02,05,44,10.80
2009,06,02,05,45,10.80
2009,06,02,05,46,10.80
2009,06,02,05,47,10.80
2009,06,02,05,48,10.80
2009,06,02,05,49,10.80
2009,06,02,05,50,10.80
2009,06,02,05,51,10.80
2009,06,02,05,52,10.80
2009,06,02,05,53,10.80
2009,06,02,05,54,10.80
2009,06,02,05,55,11.20
2009,06,02,05,56,11.20
2009,06,02,05,57,11.20
2009,06,02,05,58,11.20
2009,06,02,05,59,11.20
2009,06,02,06,00,11.20
2009,06,02,06,01,11.20
2009,06,02,06,02,11.20
2009,06,02,06,03,11.20
2009,06,02,06,04,11.20
2009,06,02,06,05,11.20
2009,06,02,06,06,11.20
2009,06,02,06,07,11.20
2009,06,02,06,08,11.20
2009,06,02,06,09,11.20
2009,06,02,06,10,11.40
2009,06,02,06,11,11.40
2009,06,02,06,12,11.40
2009,06,02,06,13,11.40
2009,06,02,06,14,11.40
2009,06,02,06,15,11.40
2009,06,02,06,16,11.40
2009,06,02,06,17,11.40
2009,06,02,06,18,11.40
2009,06,02,06,19,11.40
2009,06,02,06,20,11.40
2009,06,02,06,21,11.40
2009,06,02,06,22,11.40
2009,06,02,06,24,11.40
2009,06,02,06,25,11.20
2009,06,02,06,26,11.20
2009,06,02,06,27,11.20
2009,06,02,06,28,11.20
2009,06,02,06,29,11.20
2009,06,02,06,30,11.20
2009,06,02,06,31,11.20
2009,06,02,06,32,11.20
2009,06,02,06,33,11.20
2009,06,02,06,34,11.20
2009,06,02,06,35,11.20
2009,06,02,06,36,11.20
2009,06,02,06,37,11.20
2009,06,02,06,38,11.20
2009,06,02,06,39,11.20
2009,06,02,06,40,11.20
2009,06,02,06,41,11.20
2009,06,02,06,42,11.20
2009,06,02,06,43,11.20
2009,06,02,06,44,11.20
2009,06,02,06,45,11.20
2009,06,02,06,46,11.20
2009,06,02,06,47,11.20
2009,06,02,06,48,11.20
2009,06,02,06,49,11.20
2009,06,02,06,50,11.20
2009,06,02,06,51,11.20
2009,06,02,06,52,11.20
2009,06,02,06,53,11.20
2009,06,02,06,54,11.20
2009,06,02,06,55,11.30
2009,06,02,06,56,11.30
2009,06,02,06,57,11.30
2009,06,02,06,58,11.30
2009,06,02,06,59,11.30
2009,06,02,07,00,11.30
2009,06,02,07,01,11.30
2009,06,02,07,02,11.30
2009,06,02,07,03,11.30
2009,06,02,07,04,11.30
2009,06,02,07,05,11.30
2009,06,02,07,06,11.30
2009,06,02,07,07,11.30
2009,06,02,07,08,11.30
2009,06,02,07,09,11.30
2009,06,02,07,10,11.40
2009,06,02,07,11,11.40
2009,06,02,07,12,11.40
2009,06,02,07,13,11.40
2009,06,02,07,14,11.40
2009,06,02,07,15,11.40
2009,06,02,07,16,11.40
2009,06,02,07,17,11.40
2009,06,02,07,18,11.40
2009,06,02,07,19,11.40
2009,06,02,07,20,11.40
2009,06,02,07,21,11.40
2009,06,02,07,22,11.40
2009,06,02,07,23,11.40
2009,06,02,07,24,11.40
2009,06,02,07,25,11.90
2009,06,02,07,26,11.90
2009,06,02,07,27,11.90
2009,06,02,07,28,11.90
2009,06,02,07,29,11.90
2009,06,02,07,30,11.90
2009,06,02,07,31,11.90
2009,06,02,07,33,11.90
2009,06,02,07,34,11.90
2009,06,02,07,35,11.90
2009,06,02,07,36,11.90
2009,06,02,07,37,11.90
2009,06,02,07,38,11.90
2009,06,02,07,39,11.90
2009,06,02,07,40,12.00
2009,06,02,07,41,12.00
2009,06,02,07,42,12.00
2009,06,02,07,43,12.00
2009,06,02,07,44,12.00
2009,06,02,07,45,12.00
2009,06,02,07,46,12.00
2009,06,02,07,47,12.00
2009,06,02,07,48,12.00
2009,06,02,07,49,12.00
2009,06,02,07,50,12.00
2009,06,02,07,51,12.00
2009,06,02,07,52,12.00
2009,06,02,07,53,12.00
2009,06,02,07,54,12.00
2009,06,02,07,55,11.80
2009,06,02,07,56,11.80
2009,06,02,07,57,11.80
2009,06,02,07,59,11.80
2009,06,02,08,00,11.80
2009,06,02,08,01,11.80
2009,06,02,08,02,11.80
2009,06,02,08,03,11.80
2009,06,02,08,04,11.80
2009,06,02,08,05,11.80
2009,06,02,08,06,11.80
2009,06,02,08,07,11.80
2009,06,02,08,08,11.80
2009,06,02,08,09,11.80
2009,06,02,08,10,12.20
2009,06,02,08,11,12.20
2009,06,02,08,12,12.20
2009,06,02,08,13,12.20
2009,06,02,08,14,12.20
2009,06,02,08,15,12.20
2009,06,02,08,16,12.20
2009,06,02,08,17,12.20
2009,06,02,08,18,12.20
2009,06,02,08,19,12.20
2009,06,02,08,20,12.20
2009,06,02,08,21,12.20
2009,06,02,08,22,12.20
2009,06,02,08,23,12.20
2009,06,02,08,24,12.20
2009,06,02,08,25,12.80
2009,06,02,08,26,12.80
2009,06,02,08,27,12.80
2009,06,02,08,28,12.80
2009,06,02,08,29,12.80
2009,06,02,08,30,12.80
2009,06,02,08,31,12.80
2009,06,02,08,32,12.80
2009,06,02,08,33,12.80
2009,06,02,08,34,12.80
2009,06,02,08,35,12.80
2009,06,02,08,36,12.80
2009,06,02,08,37,12.80
2009,06,02,08,38,12.80
2009,06,02,08,39,12.80
2009,06,02,08,40,12.20
2009,06,02,08,41,12.20
2009,06,02,08,42,12.20
2009,06,02,08,43,12.20
2009,06,02,08,44,12.20
2009,06,02,08,45,12.20
2009,06,02,08,46,12.20
2009,06,02,08,47,12.20
2009,06,02,08,48,12.20
2009,06,02,08,49,12.20
2009,06,02,08,50,12.20
2009,06,02,08,51,12.20
2009,06,02,08,52,12.20
2009,06,02,08,53,12.20
2009,06,02,08,54,12.20
2009,06,02,08,55,11.90
2009,06,02,08,56,11.90
2009,06,02,08,57,11.90
2009,06,02,08,58,11.90
2009,06,02,08,59,11.90
2009,06,02,09,00,11.90
2009,06,02,09,01,11.90
2009,06,02,09,02,11.90
2009,06,02,09,03,11.90
2009,06,02,09,04,11.90
2009,06,02,09,05,11.90
2009,06,02,09,06,11.90
2009,06,02,09,07,11.90
2009,06,02,09,08,11.90
2009,06,02,09,09,11.90
2009,06,02,09,10,11.90
2009,06,02,09,11,11.90
2009,06,02,09,12,11.90
2009,06,02,09,13,11.90
2009,06,02,09,14,11.90
2009,06,02,09,15,11.90
2009,06,02,09,16,11.90
2009,06,02,09,17,11.90
2009,06,02,09,18,11.90
2009,06,02,09,19,11.90
2009,06,02,09,20,11.90
2009,06,02,09,21,11.90
2009,06,02,09,22,11.90
2009,06,02,09,23,11.90
2009,06,02,09,24,11.90
2009,06,02,09,25,12.10
2009,06,02,09,26,12.10
2009,06,02,09,27,12.10
2009,06,02,09,28,12.10
2009,06,02,09,29,12.10
2009,06,02,09,30,12.10
2009,06,02,09,31,12.10
2009,06,02,09,32,12.10
2009,06,02,09,33,12.10
2009,06,02,09,34,12.10
2009,06,02,09,35,12.10
2009,06,02,09,36,12.10
2009,06,02,09,37,12.10
2009,06,02,09,38,12.10
2009,06,02,09,39,12.10
2009,06,02,09,40,12.40
2009,06,02,09,41,12.40
2009,06,02,09,42,12.40
2009,06,02,09,43,12.40
2009,06,02,09,44,12.40
2009,06,02,09,45,12.40
2009,06,02,09,46,12.40
2009,06,02,09,48,12.40
2009,06,02,09,49,12.40
2009,06,02,09,50,12.40
2009,06,02,09,51,12.40
2009,06,02,09,52,12.40
2009,06,02,09,53,12.40
2009,06,02,09,54,12.40
2009,06,02,09,55,12.90
2009,06,02,09,56,12.90
2009,06,02,09,57,12.90
2009,06,02,09,58,12.90
2009,06,02,09,59,12.90
2009,06,02,10,00,12.90
2009,06,02,10,01,12.90
2009,06,02,10,02,12.90
2009,06,02,10,03,12.90
2009,06,02,10,04,12.90
2009,06,02,10,05,12.90
2009,06,02,10,06,12.90
2009,06,02,10,07,12.90
2009,06,02,10,08,12.90
2009,06,02,10,09,12.90
2009,06,02,10,10,13.30
2009,06,02,10,11,13.30
2009,06,02,10,12,13.30
2009,06,02,10,13,13.30
2009,06,02,10,14,13.30
2009,06,02,10,15,13.30
2009,06,02,10,16,13.30
2009,06,02,10,17,13.30
2009,06,02,10,18,13.30
2009,06,02,10,19,13.30
2009,06,02,10,20,13.30
2009,06,02,10,21,13.30
2009,06,02,10,22,13.30
2009,06,02,10,23,13.30
2009,06,02,10,24,13.30
2009,06,02,10,25,13.70
2009,06,02,10,26,13.70
2009,06,02,10,27,13.70
2009,06,02,10,28,13.70
2009,06,02,10,29,13.70
2009,06,02,10,30,13.70
2009,06,02,10,31,13.70
2009,06,02,10,32,13.70
2009,06,02,10,33,13.70
2009,06,02,10,34,13.70
2009,06,02,10,35,13.70
2009,06,02,10,36,13.70
2009,06,02,10,37,13.70
2009,06,02,10,38,13.70
2009,06,02,10,39,13.70
2009,06,02,10,40,13.70
2009,06,02,10,41,13.70
2009,06,02,10,42,13.70
2009,06,02,10,43,13.70
2009,06,02,10,44,13.70
2009,06,02,10,45,13.70
2009,06,02,10,46,13.70
2009,06,02,10,47,13.70
2009,06,02,10,48,13.70
2009,06,02,10,49,13.70
2009,06,02,10,50,13.70
2009,06,02,10,51,13.70
2009,06,02,10,52,13.70
2009,06,02,10,54,13.70
2009,06,02,10,55,13.40
2009,06,02,10,56,13.40
2009,06,02,10,57,13.40
2009,06,02,10,58,13.40
2009,06,02,10,59,13.40
2009,06,02,11,00,13.40
2009,06,02,11,01,13.40
2009,06,02,11,02,13.40
2009,06,02,11,03,13.40
2009,06,02,11,04,13.40
2009,06,02,11,05,13.40
2009,06,02,11,06,13.40
2009,06,02,11,07,13.40
2009,06,02,11,08,13.40
2009,06,02,11,09,13.40
2009,06,02,11,10,13.40
2009,06,02,11,11,13.40
2009,06,02,11,12,13.40
2009,06,02,11,13,13.60
2009,06,02,11,14,13.60
2009,06,02,11,15,13.60
2009,06,02,11,16,13.60
2009,06,02,11,18,13.60
2009,06,02,11,19,13.60
2009,06,02,11,20,13.60
2009,06,02,11,21,13.60
2009,06,02,11,22,13.60
2009,06,02,11,23,13.60
2009,06,02,11,24,13.60
2009,06,02,11,25,14.40
2009,06,02,11,26,14.40
2009,06,02,11,27,14.40
2009,06,02,11,28,14.40
2009,06,02,11,29,14.40
2009,06,02,11,30,14.40
2009,06,02,11,31,14.40
2009,06,02,11,33,14.40
2009,06,02,11,34,14.40
2009,06,02,11,35,14.40
2009,06,02,11,36,14.40
2009,06,02,11,37,14.40
2009,06,02,11,38,14.40
2009,06,02,11,39,14.40
2009,06,02,11,40,15.20
2009,06,02,11,41,15.20
2009,06,02,11,42,15.20
2009,06,02,11,43,15.20
2009,06,02,11,44,15.20
2009,06,02,11,45,15.20
2009,06,02,11,46,15.20
2009,06,02,11,47,15.20
2009,06,02,11,48,15.20
2009,06,02,11,49,15.20
2009,06,02,11,50,15.20
2009,06,02,11,51,15.20
2009,06,02,11,52,15.20
2009,06,02,11,53,15.20
2009,06,02,11,54,15.20
2009,06,02,11,55,14.60
2009,06,02,11,56,14.60
2009,06,02,11,57,14.60
2009,06,02,11,58,14.60
2009,06,02,11,59,14.60
2009,06,02,12,00,14.60
2009,06,02,12,01,14.60
2009,06,02,12,02,14.60
2009,06,02,12,03,14.60
2009,06,02,12,04,14.60
2009,06,02,12,05,14.60
2009,06,02,12,06,14.60
2009,06,02,12,07,14.60
2009,06,02,12,08,14.60
2009,06,02,12,09,14.60
2009,06,02,12,10,15.60
2009,06,02,12,11,15.60
2009,06,02,12,12,15.60
2009,06,02,12,13,15.60
2009,06,02,12,14,15.60
2009,06,02,12,15,15.60
2009,06,02,12,16,15.60
2009,06,02,12,17,15.60
2009,06,02,12,18,15.60
2009,06,02,12,19,15.60
2009,06,02,12,20,15.60
2009,06,02,12,21,15.60
2009,06,02,12,22,15.60
2009,06,02,12,23,15.60
2009,06,02,12,24,15.60
2009,06,02,12,25,16.20
2009,06,02,12,26,16.20
2009,06,02,12,27,16.20
2009,06,02,12,29,16.20
2009,06,02,12,30,16.20
2009,06,02,12,31,16.20
2009,06,02,12,32,16.20
2009,06,02,12,33,16.20
2009,06,02,12,34,16.20
2009,06,02,12,35,16.20
2009,06,02,12,36,16.20
2009,06,02,12,37,16.20
2009,06,02,12,38,16.20
2009,06,02,12,39,16.20
2009,06,02,12,40,15.80
2009,06,02,12,41,15.80
2009,06,02,12,42,15.80
2009,06,02,12,43,15.80
2009,06,02,12,44,15.80
2009,06,02,12,45,15.80
2009,06,02,12,46,15.80
2009,06,02,12,47,15.80
2009,06,02,12,48,15.80
2009,06,02,12,49,15.80
2009,06,02,12,50,15.80
2009,06,02,12,51,15.80
2009,06,02,12,52,15.80
2009,06,02,12,53,15.80
2009,06,02,12,54,15.80
2009,06,02,12,55,16.20
2009,06,02,12,56,16.20
2009,06,02,12,57,16.20
2009,06,02,12,58,16.20
2009,06,02,12,59,16.20
2009,06,02,13,00,16.20
2009,06,02,13,01,16.20
2009,06,02,13,02,16.20
2009,06,02,13,03,16.20
2009,06,02,13,04,16.20
2009,06,02,13,05,16.20
2009,06,02,13,06,16.20
2009,06,02,13,07,16.20
2009,06,02,13,08,16.20
2009,06,02,13,09,16.20
2009,06,02,13,10,16.10
2009,06,02,13,11,16.10
2009,06,02,13,12,16.10
2009,06,02,13,13,16.10
2009,06,02,13,14,16.10
2009,06,02,13,15,16.10
2009,06,02,13,16,16.10
2009,06,02,13,17,16.10
2009,06,02,13,18,16.10
2009,06,02,13,19,16.10
2009,06,02,13,20,16.10
2009,06,02,13,21,16.10
2009,06,02,13,22,16.10
2009,06,02,13,23,16.10
2009,06,02,13,24,16.10
2009,06,02,13,25,16.10
2009,06,02,13,26,16.10
2009,06,02,13,27,16.10
2009,06,02,13,28,16.10
2009,06,02,13,29,16.10
2009,06,02,13,30,16.10
2009,06,02,13,31,16.10
2009,06,02,13,32,16.10
2009,06,02,13,33,16.10
2009,06,02,13,34,16.10
2009,06,02,13,35,16.10
2009,06,02,13,36,16.10
2009,06,02,13,37,16.10
2009,06,02,13,38,16.10
2009,06,02,13,39,16.10
2009,06,02,13,40,16.80
2009,06,02,13,41,16.80
2009,06,02,13,42,16.80
2009,06,02,13,43,16.80
2009,06,02,13,44,16.80
2009,06,02,13,45,16.80
2009,06,02,13,46,16.80
2009,06,02,13,47,16.80
2009,06,02,13,48,16.80
2009,06,02,13,49,16.80
2009,06,02,13,50,16.80
2009,06,02,13,51,16.80
2009,06,02,13,52,16.80
2009,06,02,13,53,16.80
2009,06,02,13,54,16.80
2009,06,02,13,55,16.40
2009,06,02,13,56,16.40
2009,06,02,13,57,16.40
2009,06,02,13,58,16.40
2009,06,02,13,59,16.40
2009,06,02,14,00,16.40
2009,06,02,14,01,16.40
2009,06,02,14,02,16.40
2009,06,02,14,03,16.40
2009,06,02,14,04,16.40
2009,06,02,14,05,16.40
2009,06,02,14,06,16.40
2009,06,02,14,07,16.40
2009,06,02,14,08,16.40
2009,06,02,14,09,16.40
2009,06,02,14,10,17.30
2009,06,02,14,11,17.30
2009,06,02,14,12,17.30
2009,06,02,14,13,17.30
2009,06,02,14,14,17.30
2009,06,02,14,15,17.30
2009,06,02,14,16,17.30
2009,06,02,14,17,17.30
2009,06,02,14,18,17.30
2009,06,02,14,19,17.30
2009,06,02,14,20,17.30
2009,06,02,14,21,17.30
2009,06,02,14,22,17.30
2009,06,02,14,23,17.30
2009,06,02,14,24,17.30
2009,06,02,14,25,17.30
2009,06,02,14,26,17.30
2009,06,02,14,27,17.30
2009,06,02,14,28,17.30
2009,06,02,14,29,17.30
2009,06,02,14,30,17.30
2009,06,02,14,31,17.30
2009,06,02,14,32,17.30
2009,06,02,14,33,17.30
2009,06,02,14,34,17.30
2009,06,02,14,35,17.30
2009,06,02,14,36,17.30
2009,06,02,14,37,17.30
2009,06,02,14,38,17.30
2009,06,02,14,39,17.30
2009,06,02,14,40,17.10
2009,06,02,14,41,17.10
2009,06,02,14,42,17.10
2009,06,02,14,43,17.10
2009,06,02,14,44,17.10
2009,06,02,14,45,17.10
2009,06,02,14,46,17.10
2009,06,02,14,47,17.10
2009,06,02,14,48,17.10
2009,06,02,14,49,17.10
2009,06,02,14,50,17.10
2009,06,02,14,51,17.10
2009,06,02,14,52,17.10
2009,06,02,14,53,17.10
2009,06,02,14,54,17.10
2009,06,02,14,55,17.90
2009,06,02,14,56,17.90
2009,06,02,14,57,17.90
2009,06,02,14,58,17.90
2009,06,02,14,59,17.90
2009,06,02,15,00,17.90
2009,06,02,15,01,17.90
2009,06,02,15,02,17.90
2009,06,02,15,03,17.90
2009,06,02,15,04,17.90
2009,06,02,15,05,17.90
2009,06,02,15,06,17.90
2009,06,02,15,07,17.90
2009,06,02,15,08,17.90
2009,06,02,15,09,17.90
2009,06,02,15,10,18.30
2009,06,02,15,11,18.30
2009,06,02,15,12,18.30
2009,06,02,15,13,18.30
2009,06,02,15,14,18.30
2009,06,02,15,15,18.30
2009,06,02,15,16,18.30
2009,06,02,15,17,18.30
2009,06,02,15,18,18.30
2009,06,02,15,19,18.30
2009,06,02,15,20,18.30
2009,06,02,15,21,18.30
2009,06,02,15,22,18.30
2009,06,02,15,23,18.30
2009,06,02,15,24,18.30
2009,06,02,15,25,18.10
2009,06,02,15,26,18.10
2009,06,02,15,27,18.10
2009,06,02,15,28,18.10
2009,06,02,15,29,18.10
2009,06,02,15,30,18.10
2009,06,02,15,31,18.10
2009,06,02,15,32,18.10
2009,06,02,15,33,18.10
2009,06,02,15,34,18.10
2009,06,02,15,35,18.10
2009,06,02,15,36,18.10
2009,06,02,15,37,18.10
2009,06,02,15,38,18.10
2009,06,02,15,39,18.10
2009,06,02,15,40,18.30
2009,06,02,15,41,18.30
2009,06,02,15,42,18.30
2009,06,02,15,43,18.30
2009,06,02,15,44,18.30
2009,06,02,15,45,18.30
2009,06,02,15,46,18.30
2009,06,02,15,47,18.30
2009,06,02,15,49,18.30
2009,06,02,15,50,18.30
2009,06,02,15,51,18.30
2009,06,02,15,53,18.30
2009,06,02,15,54,18.30
2009,06,02,15,55,18.20
2009,06,02,15,56,18.20
2009,06,02,15,57,18.20
2009,06,02,15,58,18.20
2009,06,02,15,59,18.20
2009,06,02,16,00,18.20
2009,06,02,16,01,18.20
2009,06,02,16,02,18.20
2009,06,02,16,03,18.20
2009,06,02,16,04,18.20
2009,06,02,16,05,18.20
2009,06,02,16,06,18.20
2009,06,02,16,07,18.20
2009,06,02,16,08,18.20
2009,06,02,16,09,18.20
2009,06,02,16,10,18.50
2009,06,02,16,11,18.50
2009,06,02,16,12,18.50
2009,06,02,16,13,18.50
2009,06,02,16,14,18.50
2009,06,02,16,15,18.50
2009,06,02,16,16,18.50
2009,06,02,16,17,18.50
2009,06,02,16,18,18.50
2009,06,02,16,19,18.50
2009,06,02,16,20,18.50
2009,06,02,16,21,18.50
2009,06,02,16,22,18.50
2009,06,02,16,23,18.50
2009,06,02,16,24,18.50
2009,06,02,16,25,17.90
2009,06,02,16,26,17.90
2009,06,02,16,27,17.90
2009,06,02,16,28,17.90
2009,06,02,16,29,17.90
2009,06,02,16,30,17.90
2009,06,02,16,31,17.90
2009,06,02,16,32,17.90
2009,06,02,16,33,17.90
2009,06,02,16,34,17.90
2009,06,02,16,35,17.90
2009,06,02,16,36,17.90
2009,06,02,16,37,17.90
2009,06,02,16,38,17.90
2009,06,02,16,39,17.90
2009,06,02,16,40,18.30
2009,06,02,16,41,18.30
2009,06,02,16,42,18.30
2009,06,02,16,43,18.30
2009,06,02,16,44,18.30
2009,06,02,16,45,18.30
2009,06,02,16,46,18.30
2009,06,02,16,47,18.30
2009,06,02,16,48,18.30
2009,06,02,16,49,18.30
2009,06,02,16,50,18.30
2009,06,02,16,51,18.30
2009,06,02,16,52,18.30
2009,06,02,16,53,18.30
2009,06,02,16,54,18.30
2009,06,02,16,55,17.70
2009,06,02,16,56,17.70
2009,06,02,16,57,17.70
2009,06,02,16,58,17.70
2009,06,02,16,59,17.70
2009,06,02,17,00,17.70
2009,06,02,17,01,17.70
2009,06,02,17,02,17.70
2009,06,02,17,03,17.70
2009,06,02,17,04,17.70
2009,06,02,17,05,17.70
2009,06,02,17,06,17.70
2009,06,02,17,07,17.70
2009,06,02,17,08,17.70
2009,06,02,17,09,17.70
2009,06,02,17,10,17.30
2009,06,02,17,11,17.30
2009,06,02,17,12,17.30
2009,06,02,17,13,17.30
2009,06,02,17,14,17.30
2009,06,02,17,15,17.30
2009,06,02,17,16,17.30
2009,06,02,17,17,17.30
2009,06,02,17,18,17.30
2009,06,02,17,19,17.30
2009,06,02,17,20,17.30
2009,06,02,17,21,17.30
2009,06,02,17,22,17.30
2009,06,02,17,23,17.30
2009,06,02,17,24,17.30
2009,06,02,17,25,16.20
2009,06,02,17,26,16.20
2009,06,02,17,27,16.20
2009,06,02,17,28,16.20
2009,06,02,17,29,16.20
2009,06,02,17,30,16.20
2009,06,02,17,31,16.20
2009,06,02,17,33,16.20
2009,06,02,17,34,16.20
2009,06,02,17,35,16.20
2009,06,02,17,36,16.20
2009,06,02,17,37,16.20
2009,06,02,17,38,16.20
2009,06,02,17,39,16.20
2009,06,02,17,40,15.80
2009,06,02,17,41,15.80
2009,06,02,17,42,15.80
2009,06,02,17,43,15.80